Time,TemperatureF,DewpointF,PressureIn,WindDirection,WindDirectionDegrees,WindSpeedMPH,WindSpeedGustMPH,Humidity,HourlyPrecipIn,Conditions,Clouds,dailyrainin,SoftwareType,DateUTC
2013-07-23 00:07:00,78.3,65.1,29.66,North,0,6.3,-999.0,64,-99.99,,,0.00,Acu-Link.com,2013-07-23 05:07:00,
2013-07-23 00:22:00,77.9,63.8,29.66,North,0,7.8,-999.0,62,-99.99,,,0.00,Acu-Link.com,2013-07-23 05:22:00,
2013-07-23 00:37:00,77.2,63.6,29.66,North,0,5.8,-999.0,63,-99.99,,,0.00,Acu-Link.com,2013-07-23 05:37:00,
2013-07-23 00:52:00,76.1,63.0,29.66,NE,45,5.3,-999.0,64,-99.99,,,0.00,Acu-Link.com,2013-07-23 05:52:00,
2013-07-23 01:07:00,75.7,63.1,29.66,NE,45,6.3,-999.0,65,-99.99,,,0.00,Acu-Link.com,2013-07-23 06:07:00,
2013-07-23 01:23:00,75.6,63.0,29.66,ENE,67,4.2,-999.0,65,-99.99,,,0.00,Acu-Link.com,2013-07-23 06:23:00,
2013-07-23 01:38:00,75.2,62.6,29.65,East,90,6.8,-999.0,65,-99.99,,,0.00,Acu-Link.com,2013-07-23 06:38:00,
2013-07-23 01:53:00,74.7,63.0,29.65,NE,45,5.3,-999.0,67,-99.99,,,0.00,Acu-Link.com,2013-07-23 06:53:00,
2013-07-23 02:08:00,74.5,63.2,29.64,ENE,67,4.7,-999.0,68,-99.99,,,0.00,Acu-Link.com,2013-07-23 07:08:00,
2013-07-23 02:24:00,74.1,63.3,29.65,East,90,2.7,-999.0,69,-99.99,,,0.00,Acu-Link.com,2013-07-23 07:24:00,
2013-07-23 02:39:00,73.4,63.0,29.67,SSE,157,0.0,-999.0,70,-99.99,,,0.00,Acu-Link.com,2013-07-23 07:39:00,
2013-07-23 02:54:00,72.7,63.1,29.66,WSW,247,0.0,-999.0,72,-99.99,,,0.00,Acu-Link.com,2013-07-23 07:54:00,
2013-07-23 03:10:00,72.1,63.3,29.65,WSW,247,2.2,-999.0,74,-99.99,,,0.00,Acu-Link.com,2013-07-23 08:10:00,
2013-07-23 03:26:00,71.6,63.2,29.65,SW,225,1.7,-999.0,75,-99.99,,,0.00,Acu-Link.com,2013-07-23 08:26:00,
2013-07-23 03:41:00,71.4,63.1,29.64,West,270,3.2,-999.0,75,-99.99,,,0.00,Acu-Link.com,2013-07-23 08:41:00,
2013-07-23 03:56:00,71.4,63.1,29.65,WNW,292,2.2,-999.0,75,-99.99,,,0.00,Acu-Link.com,2013-07-23 08:56:00,
2013-07-23 04:11:00,71.1,62.8,29.65,NNW,337,3.7,-999.0,75,-99.99,,,0.00,Acu-Link.com,2013-07-23 09:11:00,
2013-07-23 04:26:00,70.5,62.6,29.65,NW,315,3.2,-999.0,76,-99.99,,,0.00,Acu-Link.com,2013-07-23 09:26:00,
2013-07-23 04:42:00,70.2,62.6,29.66,NW,315,1.7,-999.0,77,-99.99,,,0.00,Acu-Link.com,2013-07-23 09:42:00,
2013-07-23 04:57:00,70.2,62.6,29.66,WNW,292,3.2,-999.0,77,-99.99,,,0.00,Acu-Link.com,2013-07-23 09:57:00,
2013-07-23 05:12:00,70.0,62.8,29.66,WNW,292,3.2,-999.0,78,-99.99,,,0.00,Acu-Link.com,2013-07-23 10:12:00,
2013-07-23 05:27:00,70.0,62.8,29.66,NNE,22,9.4,-999.0,78,-99.99,,,0.00,Acu-Link.com,2013-07-23 10:27:00,
2013-07-23 05:43:00,70.5,62.9,29.67,NNE,22,5.3,-999.0,77,-99.99,,,0.00,Acu-Link.com,2013-07-23 10:43:00,
2013-07-23 05:58:00,70.7,63.1,29.68,North,0,6.8,-999.0,77,-99.99,,,0.00,Acu-Link.com,2013-07-23 10:58:00,
2013-07-23 06:13:00,70.7,63.9,29.70,NNW,337,13.5,-999.0,79,-99.99,,,0.00,Acu-Link.com,2013-07-23 11:13:00,
2013-07-23 06:28:00,70.7,64.2,29.74,NW,315,8.9,-999.0,80,-99.99,,,0.00,Acu-Link.com,2013-07-23 11:28:00,
2013-07-23 06:43:00,70.2,62.6,29.79,West,270,28.4,-999.0,77,-99.99,,,0.04,Acu-Link.com,2013-07-23 11:43:00,
2013-07-23 06:59:00,66.2,62.2,29.82,West,270,16.1,-999.0,87,-99.99,,,0.04,Acu-Link.com,2013-07-23 11:59:00,
2013-07-23 07:14:00,65.1,61.8,29.80,North,0,13.5,-999.0,89,-99.99,,,0.10,Acu-Link.com,2013-07-23 12:14:00,
2013-07-23 07:29:00,65.1,61.8,29.78,NE,45,18.6,-999.0,89,-99.99,,,0.30,Acu-Link.com,2013-07-23 12:29:00,
2013-07-23 08:01:00,65.3,61.7,29.80,NNW,337,11.4,-999.0,88,-99.99,,,0.30,Acu-Link.com,2013-07-23 13:01:00,
2013-07-23 08:18:00,65.3,61.7,29.78,NNW,337,6.8,-999.0,88,-99.99,,,0.31,Acu-Link.com,2013-07-23 13:18:00,
2013-07-23 08:35:00,64.9,61.6,29.75,NE,45,8.9,-999.0,89,-99.99,,,0.33,Acu-Link.com,2013-07-23 13:35:00,
2013-07-23 08:51:00,65.1,62.1,29.72,East,90,6.3,-999.0,90,-99.99,,,0.33,Acu-Link.com,2013-07-23 13:51:00,
2013-07-23 09:06:00,65.5,61.8,29.68,NE,45,12.5,-999.0,88,-99.99,,,0.33,Acu-Link.com,2013-07-23 14:06:00,
2013-07-23 10:43:00,68.4,63.0,29.71,SW,225,8.3,-999.0,83,-99.99,,,0.33,Acu-Link.com,2013-07-23 15:43:00,
2013-07-23 12:18:00,75.4,63.7,29.78,NNE,22,4.2,-999.0,67,-99.99,,,0.33,Acu-Link.com,2013-07-23 17:18:00,
2013-07-23 12:33:00,75.6,63.9,29.77,ESE,112,5.8,-999.0,67,-99.99,,,0.33,Acu-Link.com,2013-07-23 17:33:00,
2013-07-23 12:48:00,77.2,64.9,29.77,ENE,67,8.9,-999.0,66,-99.99,,,0.33,Acu-Link.com,2013-07-23 17:48:00,
2013-07-23 13:25:00,75.4,63.7,29.77,ESE,112,7.8,-999.0,67,-99.99,,,0.33,Acu-Link.com,2013-07-23 18:25:00,
2013-07-23 13:40:00,75.6,64.3,29.75,East,90,7.3,-999.0,68,-99.99,,,0.33,Acu-Link.com,2013-07-23 18:40:00,
2013-07-23 14:19:00,74.5,63.6,29.73,East,90,5.8,-999.0,69,-99.99,,,0.33,Acu-Link.com,2013-07-23 19:19:00,
2013-07-23 14:34:00,74.7,63.0,29.77,ENE,67,7.8,-999.0,67,-99.99,,,0.33,Acu-Link.com,2013-07-23 19:34:00,
2013-07-23 14:50:00,75.4,64.1,29.77,East,90,7.8,-999.0,68,-99.99,,,0.33,Acu-Link.com,2013-07-23 19:50:00,
2013-07-23 15:09:00,76.5,63.8,29.76,East,90,7.8,-999.0,65,-99.99,,,0.33,Acu-Link.com,2013-07-23 20:09:00,
2013-07-23 15:26:00,77.9,64.7,29.75,ENE,67,9.9,-999.0,64,-99.99,,,0.33,Acu-Link.com,2013-07-23 20:26:00,
2013-07-23 15:41:00,76.1,63.5,29.77,North,0,5.3,-999.0,65,-99.99,,,0.33,Acu-Link.com,2013-07-23 20:41:00,
2013-07-23 15:57:00,77.5,63.9,29.77,NE,45,5.8,-999.0,63,-99.99,,,0.33,Acu-Link.com,2013-07-23 20:57:00,
2013-07-23 16:13:00,78.3,65.1,29.75,NE,45,6.8,-999.0,64,-99.99,,,0.33,Acu-Link.com,2013-07-23 21:13:00,
2013-07-23 16:28:00,79.5,64.9,29.77,ENE,67,9.4,-999.0,61,-99.99,,,0.33,Acu-Link.com,2013-07-23 21:28:00,
2013-07-23 16:43:00,79.9,65.7,29.76,ENE,67,7.3,-999.0,62,-99.99,,,0.33,Acu-Link.com,2013-07-23 21:43:00,
2013-07-23 17:14:00,81.1,65.9,29.76,NE,45,9.4,-999.0,60,-99.99,,,0.33,Acu-Link.com,2013-07-23 22:14:00,
2013-07-23 17:29:00,79.9,65.7,29.76,East,90,7.8,-999.0,62,-99.99,,,0.33,Acu-Link.com,2013-07-23 22:29:00,
2013-07-23 17:44:00,78.3,64.6,29.77,East,90,4.2,-999.0,63,-99.99,,,0.33,Acu-Link.com,2013-07-23 22:44:00,
2013-07-23 17:59:00,80.4,65.7,29.76,East,90,4.2,-999.0,61,-99.99,,,0.33,Acu-Link.com,2013-07-23 22:59:00,
2013-07-23 18:45:00,79.5,65.8,29.74,East,90,5.3,-999.0,63,-99.99,,,0.33,Acu-Link.com,2013-07-23 23:45:00,
2013-07-23 19:00:00,79.3,65.6,29.75,ESE,112,5.3,-999.0,63,-99.99,,,0.33,Acu-Link.com,2013-07-24 00:00:00,
2013-07-23 19:16:00,78.4,65.6,29.74,NE,45,4.2,-999.0,65,-99.99,,,0.33,Acu-Link.com,2013-07-24 00:16:00,
2013-07-23 19:46:00,77.7,65.4,29.75,NE,45,6.8,-999.0,66,-99.99,,,0.33,Acu-Link.com,2013-07-24 00:46:00,
2013-07-23 20:01:00,77.4,65.6,29.74,NE,45,3.7,-999.0,67,-99.99,,,0.33,Acu-Link.com,2013-07-24 01:01:00,
2013-07-23 20:16:00,77.0,65.6,29.76,East,90,1.7,-999.0,68,-99.99,,,0.33,Acu-Link.com,2013-07-24 01:16:00,
2013-07-23 21:02:00,72.7,63.9,29.76,East,90,2.7,-999.0,74,-99.99,,,0.33,Acu-Link.com,2013-07-24 02:02:00,
2013-07-23 21:33:00,70.9,63.7,29.78,East,90,0.0,-999.0,78,-99.99,,,0.33,Acu-Link.com,2013-07-24 02:33:00,
2013-07-23 21:48:00,70.2,63.7,29.78,East,90,2.7,-999.0,80,-99.99,,,0.33,Acu-Link.com,2013-07-24 02:48:00,
2013-07-23 22:19:00,69.4,63.3,29.79,NE,45,2.7,-999.0,81,-99.99,,,0.33,Acu-Link.com,2013-07-24 03:19:00,
2013-07-23 22:34:00,68.7,63.0,29.78,ENE,67,2.7,-999.0,82,-99.99,,,0.33,Acu-Link.com,2013-07-24 03:34:00,
2013-07-23 23:04:00,67.8,62.4,29.79,ESE,112,4.7,-999.0,83,-99.99,,,0.33,Acu-Link.com,2013-07-24 04:04:00,
2013-07-23 23:19:00,67.8,62.4,29.79,East,90,2.7,-999.0,83,-99.99,,,0.33,Acu-Link.com,2013-07-24 04:19:00,
2013-07-23 23:35:00,67.6,62.2,29.80,East,90,4.2,-999.0,83,-99.99,,,0.33,Acu-Link.com,2013-07-24 04:35:00,
2013-07-23 23:50:00,67.3,62.0,29.80,East,90,3.7,-999.0,83,-99.99,,,0.33,Acu-Link.com,2013-07-24 04:50:00,